Regional Weather Roundup
Issued by NWS Little Rock, AR

Home | Current Version | Previous Version | Graphics & Text | Print | Product List | Glossary On
Versions: 1 2 3 4 5 6 7 8 9 10 11 12 13 14 15 16 17 18 19 20 21 22 23 24 25 26 27 28 29 30 31 32 33 34 35 36 37 38 39 40 41 42 43 44 45 46 47 48 49 50
000
ASUS44 KLZK 242205
RWRLZK

WEATHER ROUNDUP FOR ARKANSAS
NATIONAL WEATHER SERVICE LITTLE ROCK AR
500 PM CDT SAT JUN 24 2017

NOTE: "FAIR" INDICATES FEW OR NO CLOUDS BELOW 12,000 FEET WITH NO
SIGNIFICANT WEATHER AND/OR OBSTRUCTIONS TO VISIBILITY.

ARZ001-003-010-029-242300-
NORTHWEST ARKANSAS

CITY           SKY/WX    TMP DP  RH WIND       PRES   REMARKS
FAYETTEVILLE   CLOUDY    77  55  46 MISG      30.17F
FORT SMITH     MOSUNNY   82  58  43 NE10      30.12F
HARRISON       PTSUNNY   77  54  44 NW8       30.17F
BENTONVILLE    CLOUDY    79  54  41 N6        30.19F
ROGERS         SUNNY     78  53  41 N9        30.18F
SILOAM SPGS    MOSUNNY   79  54  41 N12       30.16F
HIGHFILL       CLOUDY    82  55  39 N12       30.18F
SPRINGDALE     PTSUNNY   79  54  41 N8G15     30.19F
$$

ARZ004-005-016-242300-
NORTH CENTRAL ARKANSAS

CITY           SKY/WX    TMP DP  RH WIND       PRES   REMARKS
BATESVILLE     MOSUNNY   81  57  44 N3        30.12F
FLIPPIN        MOSUNNY  N/A N/A N/A N6        30.12F
$$

ARZ040-041-242300-
WEST CENTRAL ARKANSAS

CITY           SKY/WX    TMP DP  RH WIND       PRES   REMARKS
MENA           MOSUNNY   82  57  42 N8        30.14S
MOUNT IDA      CLOUDY    81  57  43 CALM      30.11S
$$

ARZ009-017-025-026-028-242300-
NORTHEAST ARKANSAS

CITY           SKY/WX    TMP DP  RH WIND       PRES   REMARKS
JONESBORO      MOSUNNY   82  60  47 NW9       30.10S
WALNUT RIDGE   MOSUNNY   81  57  44 NW9       30.11S
BLYTHEVILLE    MOSUNNY   82  62  50 N9G16     30.10F
$$

ARZ022-023-033-042-044-242300-
CENTRAL ARKANSAS

CITY           SKY/WX    TMP DP  RH WIND       PRES   REMARKS
LITTLE ROCK    PTSUNNY   82  62  50 NE10      30.10F
N LITTLE ROCK    N/A     80  63  55 N7        30.10F
JACKSONVILLE   SUNNY     82  62  51 N7        30.10F
CONWAY           N/A     82  59  44 N12       30.09F
SEARCY         SUNNY     81  62  52 N9        30.12S
HOT SPRINGS    MOSUNNY   83  60  45 NE10      30.11S
RUSSELLVILLE   SUNNY     83  57  41 NE7       30.11F
CLINTON        FAIR      81  59  47 VRB5      30.12F
$$

ARZ036-242300-
EAST ARKANSAS

CITY           SKY/WX    TMP DP  RH WIND       PRES   REMARKS
WEST MEMPHIS   MOSUNNY   79  63  57 N12       30.08F
$$

ARZ050-053-066-070-073-242300-
SOUTHWEST ARKANSAS

CITY           SKY/WX    TMP DP  RH WIND       PRES   REMARKS
CAMDEN         CLOUDY    81  64  57 NE7       30.09S
TEXARKANA      CLOUDY    78  64  61 NE6       30.10S
EL DORADO      CLOUDY    81  69  67 NE8       30.09R
DE QUEEN       CLOUDY    82  68  62 E5        30.08F HX  85
$$

ARZ056-057-069-242300-
SOUTHEAST ARKANSAS

CITY           SKY/WX    TMP DP  RH WIND       PRES   REMARKS
PINE BLUFF     CLOUDY    79  63  57 NE9       30.10S
STUTTGART      SUNNY    N/A N/A N/A NE12      30.10F
MONTICELLO     PTSUNNY   81  65  58 VRB5      30.08F

$$





USA.gov is the U.S. government's official web portal to all federal, state and local government web resources and services.